sat.trackr.live / text

‹ back to catalog

ONEWEB-0093

NORAD 45444 · 2020-020W

PAYLOAD ACTIVE UNKNOWN

§ Identity

Operator
Country
UK
Launch date
2020-03-21
Launch site
TYMSC
Launch vehicle
Mass (kg)
RCS (m²)

Purposes: comms

External: N2YO · Heavens-Above · Gunter

§ Orbital elements

Epoch: 2026-09-15T06:33:41.810112Z

Period
109.80 min
Inclination
87.8974°
Eccentricity
0.0002084
Mean motion
13.11418260 rev/d
Perigee alt
1,216.1 km
Apogee alt
1,219.3 km
Semi-major
7,595.8 km
B*
1.2044e-3
RAAN
3.1607°
Arg perigee
99.4858°
Mean anomaly
260.6505°
Rev number
31,448

§ Raw data

ONEWEB-00931 45444U 20020W   26258.27340058  .00000440  00000+0  12044-2 0  99972 45444  87.8974   3.1607 0002084  99.4858 260.6505 13.11418260314481

JSON: /api/v1/satellites/45444 · /tle

For live sub-satellite position, see the globe view (requires WebGL).

§ Visibility from observer

Set your observer location to see the next 7 days of passes ≥ 10°. The values pass through the URL so the page stays shareable.

No JS? Fill the form by hand. The geolocation button needs JavaScript.